| time (UTC) | temp C | wind direction | speed KPH | gust KPH | rain 1hr cm | rain 24hr cm | rain mn cm | humidity % | barometer mb |
| 20260510190503 | 22 | 327 | 1.6 | 16.1 | 0.00 | 0.61 | 0.00 | 56 | 1013.2 |
| 20260510190015 | 22 | 262 | 1.6 | 19.3 | 0.00 | 0.61 | 0.00 | 54 | 1013.2 |
| 20260510185504 | 22 | 336 | 4.8 | 19.3 | 0.00 | 0.61 | 0.00 | 56 | 1013.3 |
| 20260510185006 | 22 | 332 | 12.9 | 19.3 | 0.00 | 0.61 | 0.00 | 52 | 1013.3 |
| 20260510184511 | 22 | 314 | 3.2 | 11.3 | 0.00 | 0.61 | 0.00 | 54 | 1013.3 |
| 20260510184003 | 22 | 322 | 0.0 | 11.3 | 0.00 | 0.61 | 0.00 | 55 | 1013.4 |
| 20260510183504 | 22 | 206 | 3.2 | 24.1 | 0.00 | 0.61 | 0.00 | 56 | 1013.3 |
| 20260510183032 | 22 | 171 | 6.4 | 24.1 | 0.00 | 0.61 | 0.00 | 54 | 1013.3 |
| 20260510182507 | 22 | 219 | 4.8 | 12.9 | 0.00 | 0.64 | 0.00 | 58 | 1013.4 |
| 20260510182003 | 22 | 183 | 0.0 | 12.9 | 0.00 | 0.64 | 0.00 | 58 | 1013.2 |
| 20260510181523 | 22 | 306 | 0.0 | 9.7 | 0.00 | 0.64 | 0.00 | 59 | 1013.3 |
| 20260510181010 | 22 | 349 | 3.2 | 14.5 | 0.00 | 0.64 | 0.00 | 60 | 1013.4 |
| 20260510180503 | 22 | 192 | 3.2 | 14.5 | 0.00 | 0.64 | 0.00 | 60 | 1013.2 |
| 20260510180006 | 22 | 193 | 3.2 | 9.7 | 0.00 | 0.69 | 0.00 | 59 | 1013.2 |
| 20260510175504 | 22 | 189 | 3.2 | 16.1 | 0.00 | 0.71 | 0.00 | 58 | 1013.2 |
| 20260510175003 | 22 | 325 | 6.4 | 16.1 | 0.00 | 0.71 | 0.00 | 58 | 1013.1 |
| 20260510174507 | 22 | 82 | 3.2 | 11.3 | 0.00 | 0.71 | 0.00 | 60 | 1013.2 |
| 20260510174006 | 22 | 115 | 1.6 | 12.9 | 0.00 | 0.71 | 0.00 | 61 | 1013.1 |
| 20260510173506 | 22 | 184 | 3.2 | 12.9 | 0.00 | 0.71 | 0.00 | 62 | 1013.2 |
| 20260510173013 | 21 | 211 | 3.2 | 9.7 | 0.00 | 0.71 | 0.00 | 65 | 1013.2 |
| 20260510172506 | 21 | 185 | 3.2 | 9.7 | 0.00 | 0.71 | 0.00 | 64 | 1013.3 |
| 20260510172010 | 21 | 198 | 1.6 | 9.7 | 0.00 | 0.71 | 0.00 | 69 | 1013.3 |
| 20260510171518 | 21 | 183 | 3.2 | 12.9 | 0.00 | 0.71 | 0.00 | 66 | 1013.2 |
| 20260510171003 | 21 | 322 | 4.8 | 12.9 | 0.00 | 0.71 | 0.00 | 66 | 1013.2 |
| 20260510170507 | 20 | 187 | 1.6 | 9.7 | 0.00 | 0.71 | 0.00 | 67 | 1013.3 |
| 20260510170016 | 20 | 186 | 3.2 | 9.7 | 0.00 | 0.71 | 0.00 | 69 | 1013.4 |
| 20260510165507 | 20 | 249 | 0.0 | 9.7 | 0.00 | 0.71 | 0.00 | 71 | 1013.5 |
| 20260510165003 | 20 | 156 | 1.6 | 12.9 | 0.00 | 0.71 | 0.00 | 72 | 1013.5 |
| 20260510164513 | 20 | 132 | 4.8 | 12.9 | 0.00 | 0.71 | 0.00 | 68 | 1013.6 |
| 20260510164006 | 20 | 217 | 3.2 | 12.9 | 0.00 | 0.71 | 0.00 | 70 | 1013.6 |
| 20260510163504 | 20 | 112 | 1.6 | 12.9 | 0.00 | 0.71 | 0.00 | 72 | 1013.6 |
| 20260510163010 | 20 | 159 | 4.8 | 12.9 | 0.00 | 0.71 | 0.00 | 71 | 1013.6 |
| 20260510162506 | 19 | 172 | 0.0 | 9.7 | 0.00 | 0.71 | 0.00 | 72 | 1013.7 |
| 20260510162009 | 19 | 185 | 4.8 | 9.7 | 0.00 | 0.71 | 0.00 | 71 | 1013.7 |
| 20260510161512 | 19 | 159 | 3.2 | 14.5 | 0.00 | 0.71 | 0.00 | 72 | 1013.6 |
| 20260510161008 | 19 | 180 | 3.2 | 14.5 | 0.00 | 0.71 | 0.00 | 72 | 1013.7 |
| 20260510160507 | 19 | 188 | 1.6 | 8.0 | 0.00 | 0.71 | 0.00 | 75 | 1013.6 |
| 20260510160011 | 18 | 215 | 0.0 | 11.3 | 0.00 | 0.71 | 0.00 | 75 | 1013.6 |
| 20260510155507 | 18 | 334 | 1.6 | 11.3 | 0.00 | 0.71 | 0.00 | 73 | 1013.5 |
| 20260510155007 | 18 | 183 | 1.6 | 11.3 | 0.00 | 0.71 | 0.00 | 78 | 1013.4 |
| 20260510154520 | 18 | 146 | 4.8 | 11.3 | 0.00 | 0.71 | 0.00 | 76 | 1013.6 |
| 20260510154004 | 17 | 146 | 3.2 | 12.9 | 0.00 | 0.71 | 0.00 | 78 | 1013.6 |
| 20260510153503 | 17 | 167 | 3.2 | 12.9 | 0.00 | 0.71 | 0.00 | 77 | 1013.7 |
| 20260510153010 | 17 | 164 | 4.8 | 12.9 | 0.00 | 0.71 | 0.00 | 77 | 1013.8 |
| 20260510152504 | 17 | 130 | 1.6 | 11.3 | 0.00 | 0.71 | 0.00 | 79 | 1013.7 |
| 20260510152008 | 17 | 153 | 1.6 | 11.3 | 0.00 | 0.71 | 0.00 | 79 | 1013.7 |
| 20260510151514 | 17 | 132 | 1.6 | 11.3 | 0.00 | 0.71 | 0.00 | 80 | 1013.6 |
| 20260510151006 | 16 | 143 | 4.8 | 11.3 | 0.00 | 0.71 | 0.00 | 81 | 1013.6 |
| 20260510150506 | 16 | 148 | 1.6 | 8.0 | 0.00 | 0.71 | 0.00 | 82 | 1013.7 |
| 20260510150016 | 16 | 86 | 1.6 | 9.7 | 0.00 | 0.71 | 0.00 | 82 | 1013.8 |
| 20260510145507 | 16 | 171 | 1.6 | 9.7 | 0.00 | 0.71 | 0.00 | 83 | 1013.9 |
| 20260510145012 | 15 | 159 | 1.6 | 11.3 | 0.00 | 0.71 | 0.00 | 83 | 1014.0 |
| 20260510144525 | 15 | 157 | 4.8 | 11.3 | 0.00 | 0.71 | 0.00 | 84 | 1014.0 |
| 20260510144007 | 15 | 144 | 1.6 | 12.9 | 0.00 | 0.71 | 0.00 | 84 | 1013.8 |
| 20260510143516 | 15 | 153 | 0.0 | 12.9 | 0.00 | 0.71 | 0.00 | 85 | 1013.7 |
| 20260510143031 | 15 | 146 | 4.8 | 12.9 | 0.00 | 0.71 | 0.00 | 84 | 1013.9 |
| 20260510142506 | 15 | 142 | 0.0 | 8.0 | 0.00 | 0.71 | 0.00 | 87 | 1013.8 |
| 20260510142004 | 15 | 143 | 1.6 | 8.0 | 0.00 | 0.71 | 0.00 | 86 | 1013.7 |
| 20260510141514 | 15 | 148 | 1.6 | 6.4 | 0.00 | 0.71 | 0.00 | 85 | 1013.9 |
| 20260510141006 | 15 | 169 | 0.0 | 8.0 | 0.00 | 0.71 | 0.00 | 87 | 1013.8 |
| 20260510140509 | 14 | 171 | 1.6 | 11.3 | 0.00 | 0.71 | 0.00 | 87 | 1013.7 |
| 20260510140019 | 14 | 155 | 1.6 | 16.1 | 0.00 | 0.71 | 0.00 | 86 | 1013.7 |
| 20260510135506 | 14 | 138 | 3.2 | 16.1 | 0.00 | 0.71 | 0.00 | 86 | 1013.7 |
| 20260510135006 | 14 | 155 | 1.6 | 9.7 | 0.00 | 0.71 | 0.00 | 87 | 1013.7 |
| 20260510134522 | 14 | 139 | 1.6 | 9.7 | 0.00 | 0.71 | 0.00 | 88 | 1013.7 |
| 20260510134008 | 13 | 186 | 0.0 | 4.8 | 0.00 | 0.71 | 0.00 | 89 | 1013.7 |
| 20260510133506 | 13 | 186 | 0.0 | 8.0 | 0.00 | 0.71 | 0.00 | 90 | 1013.7 |
| 20260510133034 | 13 | 186 | 1.6 | 8.0 | 0.00 | 0.71 | 0.00 | 91 | 1013.7 |
| 20260510132514 | 13 | 209 | 1.6 | 6.4 | 0.00 | 0.71 | 0.00 | 93 | 1013.7 |
| 20260510132013 | 12 | 159 | 0.0 | 6.4 | 0.00 | 0.71 | 0.00 | 92 | 1013.6 |
| 20260510131515 | 12 | 159 | 0.0 | 9.7 | 0.00 | 0.71 | 0.00 | 92 | 1013.6 |
| 20260510131009 | 12 | 159 | 4.8 | 9.7 | 0.00 | 0.71 | 0.00 | 92 | 1013.5 |
| 20260510130507 | 12 | 159 | 1.6 | 8.0 | 0.00 | 0.71 | 0.00 | 93 | 1013.4 |
| 20260510130014 | 12 | 150 | 0.0 | 8.0 | 0.00 | 0.71 | 0.00 | 93 | 1013.4 |
| 20260510125503 | 12 | 186 | 1.6 | 4.8 | 0.00 | 0.71 | 0.00 | 94 | 1013.4 |
| 20260510125004 | 12 | 186 | 0.0 | 3.2 | 0.00 | 0.71 | 0.00 | 94 | 1013.3 |
| 20260510124506 | 12 | 186 | 0.0 | 1.6 | 0.00 | 0.71 | 0.00 | 94 | 1013.2 |
| 20260510124003 | 12 | 186 | 0.0 | 0.0 | 0.00 | 0.71 | 0.00 | 94 | 1013.3 |
| 20260510123503 | 12 | 186 | 0.0 | 1.6 | 0.00 | 0.71 | 0.00 | 94 | 1013.4 |
| 20260510123004 | 12 | 186 | 0.0 | 1.6 | 0.00 | 0.71 | 0.00 | 94 | 1013.3 |
| 20260510122503 | 12 | 186 | 0.0 | 1.6 | 0.00 | 0.71 | 0.00 | 94 | 1013.2 |
| 20260510122002 | 11 | 186 | 0.0 | 0.0 | 0.00 | 0.71 | 0.00 | 95 | 1013.1 |
| 20260510121506 | 11 | 186 | 0.0 | 0.0 | 0.00 | 0.71 | 0.00 | 94 | 1013.1 |
| 20260510121006 | 11 | 186 | 0.0 | 0.0 | 0.00 | 0.71 | 0.00 | 94 | 1013.1 |
| 20260510120504 | 11 | 186 | 0.0 | 0.0 | 0.00 | 0.71 | 0.00 | 94 | 1013.1 |
| 20260510120004 | 11 | 186 | 0.0 | 0.0 | 0.00 | 0.71 | 0.00 | 94 | 1012.9 |
| 20260510115503 | 11 | 186 | 0.0 | 0.0 | 0.00 | 0.71 | 0.00 | 94 | 1012.8 |
| 20260510115005 | 11 | 186 | 0.0 | 0.0 | 0.00 | 0.71 | 0.00 | 95 | 1012.7 |
| 20260510114504 | 11 | 186 | 0.0 | 0.0 | 0.00 | 0.71 | 0.00 | 95 | 1012.7 |
| 20260510114004 | 11 | 186 | 0.0 | 1.6 | 0.00 | 0.71 | 0.00 | 95 | 1012.8 |
| 20260510113503 | 11 | 186 | 0.0 | 3.2 | 0.00 | 0.71 | 0.00 | 94 | 1012.8 |
| 20260510113004 | 11 | 186 | 0.0 | 3.2 | 0.00 | 0.71 | 0.00 | 94 | 1012.8 |
| 20260510112503 | 11 | 186 | 0.0 | 0.0 | 0.00 | 0.71 | 0.00 | 94 | 1012.9 |
| 20260510112004 | 11 | 186 | 0.0 | 0.0 | 0.00 | 0.71 | 0.00 | 95 | 1012.7 |
| 20260510111507 | 11 | 186 | 0.0 | 1.6 | 0.00 | 0.71 | 0.00 | 95 | 1012.4 |
| 20260510111003 | 11 | 186 | 0.0 | 1.6 | 0.00 | 0.71 | 0.00 | 95 | 1012.3 |
| 20260510110505 | 11 | 186 | 0.0 | 1.6 | 0.00 | 0.71 | 0.00 | 95 | 1012.4 |
| 20260510110008 | 11 | 186 | 0.0 | 0.0 | 0.00 | 0.71 | 0.00 | 94 | 1012.4 |
| 20260510105504 | 11 | 186 | 0.0 | 0.0 | 0.00 | 0.71 | 0.00 | 94 | 1012.3 |
| 20260510105003 | 11 | 186 | 0.0 | 0.0 | 0.00 | 0.71 | 0.00 | 94 | 1012.1 |
| 20260510104508 | 11 | 186 | 0.0 | 0.0 | 0.00 | 0.71 | 0.00 | 94 | 1012.1 |
| 20260510104005 | 11 | 186 | 0.0 | 1.6 | 0.00 | 0.71 | 0.00 | 94 | 1012.1 |
| 20260510103508 | 11 | 186 | 0.0 | 3.2 | 0.00 | 0.71 | 0.00 | 94 | 1012.1 |
| 20260510103005 | 11 | 186 | 0.0 | 3.2 | 0.00 | 0.71 | 0.00 | 94 | 1012.2 |
| 20260510102507 | 11 | 186 | 0.0 | 0.0 | 0.00 | 0.71 | 0.00 | 94 | 1012.3 |
| 20260510102002 | 11 | 186 | 0.0 | 1.6 | 0.00 | 0.71 | 0.00 | 94 | 1012.2 |
| 20260510101503 | 11 | 186 | 0.0 | 1.6 | 0.00 | 0.71 | 0.00 | 94 | 1012.2 |
| 20260510101003 | 11 | 186 | 0.0 | 0.0 | 0.00 | 0.71 | 0.00 | 94 | 1012.2 |
| 20260510100503 | 11 | 186 | 0.0 | 1.6 | 0.00 | 0.71 | 0.00 | 94 | 1012.3 |
| 20260510100009 | 11 | 186 | 0.0 | 4.8 | 0.00 | 0.71 | 0.00 | 94 | 1012.3 |
| 20260510095503 | 11 | 186 | 0.0 | 4.8 | 0.00 | 0.71 | 0.00 | 94 | 1012.2 |
| 20260510095005 | 11 | 272 | 0.0 | 1.6 | 0.00 | 0.71 | 0.00 | 94 | 1012.4 |
| 20260510094512 | 11 | 272 | 0.0 | 1.6 | 0.00 | 0.71 | 0.00 | 94 | 1012.3 |
| 20260510094006 | 11 | 273 | 0.0 | 1.6 | 0.00 | 0.71 | 0.00 | 94 | 1012.1 |
| 20260510093503 | 11 | 273 | 0.0 | 3.2 | 0.00 | 0.71 | 0.00 | 94 | 1012.1 |
| 20260510093016 | 11 | 273 | 0.0 | 3.2 | 0.00 | 0.71 | 0.00 | 94 | 1012.2 |
| 20260510092506 | 11 | 273 | 0.0 | 3.2 | 0.00 | 0.71 | 0.00 | 94 | 1012.3 |
| 20260510092002 | 11 | 276 | 0.0 | 3.2 | 0.00 | 0.71 | 0.00 | 94 | 1012.3 |
| 20260510091512 | 11 | 290 | 0.0 | 3.2 | 0.00 | 0.71 | 0.00 | 94 | 1012.4 |
| 20260510091006 | 11 | 290 | 0.0 | 1.6 | 0.00 | 0.71 | 0.00 | 94 | 1012.4 |
| 20260510090504 | 11 | 291 | 0.0 | 0.0 | 0.00 | 0.71 | 0.00 | 94 | 1012.5 |
| 20260510090006 | 11 | 291 | 0.0 | 0.0 | 0.00 | 0.71 | 0.00 | 94 | 1012.5 |
| 20260510085503 | 11 | 291 | 0.0 | 0.0 | 0.00 | 0.71 | 0.00 | 94 | 1012.5 |
| 20260510085003 | 11 | 291 | 0.0 | 0.0 | 0.00 | 0.71 | 0.00 | 94 | 1012.5 |
| 20260510084503 | 11 | 291 | 0.0 | 0.0 | 0.00 | 0.71 | 0.00 | 94 | 1012.5 |
| 20260510084004 | 11 | 291 | 0.0 | 0.0 | 0.00 | 0.71 | 0.00 | 94 | 1012.5 |
| 20260510083504 | 11 | 291 | 0.0 | 0.0 | 0.00 | 0.71 | 0.00 | 94 | 1012.6 |
| 20260510083017 | 11 | 291 | 0.0 | 0.0 | 0.00 | 0.71 | 0.00 | 94 | 1012.5 |
| 20260510082507 | 11 | 291 | 0.0 | 1.6 | 0.00 | 0.71 | 0.00 | 94 | 1012.5 |
| 20260510082007 | 11 | 291 | 0.0 | 3.2 | 0.00 | 0.71 | 0.00 | 94 | 1012.5 |
| 20260510081520 | 11 | 291 | 0.0 | 4.8 | 0.00 | 0.71 | 0.00 | 94 | 1012.4 |
| 20260510081009 | 11 | 291 | 0.0 | 4.8 | 0.00 | 0.71 | 0.00 | 94 | 1012.5 |
| 20260510080506 | 11 | 289 | 0.0 | 3.2 | 0.00 | 0.71 | 0.00 | 94 | 1012.4 |
| 20260510080018 | 11 | 291 | 0.0 | 6.4 | 0.00 | 0.71 | 0.00 | 94 | 1012.3 |
| 20260510075506 | 11 | 291 | 0.0 | 6.4 | 0.00 | 0.71 | 0.00 | 94 | 1012.3 |
| 20260510075003 | 11 | 159 | 1.6 | 6.4 | 0.00 | 0.71 | 0.00 | 94 | 1012.0 |
| 20260510074507 | 11 | 156 | 0.0 | 0.0 | 0.00 | 0.71 | 0.00 | 94 | 1011.6 |
| 20260510074005 | 11 | 156 | 0.0 | 0.0 | 0.00 | 0.71 | 0.00 | 94 | 1011.6 |
| 20260510073503 | 11 | 156 | 0.0 | 0.0 | 0.00 | 0.71 | 0.00 | 94 | 1011.6 |
| 20260510073013 | 11 | 156 | 0.0 | 0.0 | 0.00 | 0.71 | 0.00 | 94 | 1011.6 |
| 20260510072507 | 11 | 156 | 0.0 | 0.0 | 0.00 | 0.71 | 0.00 | 94 | 1011.6 |
| 20260510072007 | 11 | 156 | 0.0 | 0.0 | 0.00 | 0.71 | 0.00 | 94 | 1011.6 |
| 20260510071507 | 11 | 156 | 0.0 | 0.0 | 0.00 | 0.71 | 0.00 | 94 | 1011.6 |
| 20260510071006 | 11 | 156 | 0.0 | 0.0 | 0.00 | 0.71 | 0.00 | 94 | 1011.7 |
| 20260510070508 | 11 | 156 | 0.0 | 0.0 | 0.00 | 0.71 | 0.00 | 94 | 1011.8 |
| 20260510070023 | 11 | 156 | 0.0 | 0.0 | 0.00 | 0.71 | 0.00 | 94 | 1011.8 |
| 20260510065503 | 11 | 156 | 0.0 | 0.0 | 0.00 | 0.71 | 0.00 | 94 | 1011.8 |
| 20260510065011 | 11 | 156 | 0.0 | 0.0 | 0.00 | 0.71 | 0.00 | 94 | 1011.8 |
| 20260510064523 | 11 | 156 | 0.0 | 0.0 | 0.00 | 0.71 | 0.00 | 94 | 1011.8 |
| 20260510064004 | 11 | 156 | 0.0 | 0.0 | 0.00 | 0.71 | 0.00 | 94 | 1011.8 |
| 20260510063507 | 11 | 156 | 0.0 | 0.0 | 0.00 | 0.71 | 0.00 | 94 | 1011.9 |
| 20260510063010 | 11 | 156 | 0.0 | 0.0 | 0.00 | 0.71 | 0.00 | 94 | 1011.9 |
| 20260510062507 | 11 | 156 | 0.0 | 1.6 | 0.00 | 0.71 | 0.00 | 94 | 1011.9 |
| 20260510062007 | 11 | 156 | 0.0 | 3.2 | 0.00 | 0.71 | 0.00 | 94 | 1011.8 |
| 20260510061514 | 11 | 156 | 0.0 | 3.2 | 0.00 | 0.71 | 0.00 | 94 | 1011.8 |
| 20260510061007 | 11 | 156 | 0.0 | 1.6 | 0.00 | 0.71 | 0.00 | 94 | 1011.7 |
| 20260510060510 | 11 | 156 | 0.0 | 0.0 | 0.00 | 0.71 | 0.00 | 94 | 1011.7 |
| 20260510060019 | 11 | 156 | 0.0 | 0.0 | 0.00 | 0.71 | 0.00 | 94 | 1011.7 |
| 20260510055508 | 11 | 156 | 0.0 | 0.0 | 0.00 | 0.71 | 0.00 | 94 | 1011.7 |
| 20260510055008 | 11 | 156 | 0.0 | 0.0 | 0.00 | 0.71 | 0.00 | 94 | 1011.6 |
| 20260510054514 | 11 | 156 | 0.0 | 1.6 | 0.00 | 0.71 | 0.00 | 94 | 1011.6 |
| 20260510054009 | 11 | 156 | 0.0 | 1.6 | 0.00 | 0.71 | 0.00 | 94 | 1011.6 |
| 20260510053514 | 11 | 156 | 0.0 | 0.0 | 0.00 | 0.71 | 0.00 | 94 | 1011.6 |
| 20260510053029 | 11 | 156 | 0.0 | 0.0 | 0.00 | 0.71 | 0.00 | 94 | 1011.6 |
| 20260510052506 | 11 | 156 | 0.0 | 1.6 | 0.00 | 0.71 | 0.00 | 94 | 1011.7 |
| 20260510052014 | 11 | 156 | 0.0 | 1.6 | 0.00 | 0.71 | 0.00 | 94 | 1011.7 |
| 20260510051512 | 11 | 156 | 0.0 | 0.0 | 0.00 | 0.71 | 0.00 | 94 | 1011.7 |
| 20260510051006 | 11 | 156 | 0.0 | 0.0 | 0.00 | 0.71 | 0.00 | 94 | 1011.8 |
| 20260510050508 | 11 | 156 | 0.0 | 0.0 | 0.00 | 0.71 | 0.00 | 94 | 1011.8 |
| 20260510050018 | 11 | 156 | 0.0 | 0.0 | 0.00 | 0.71 | 0.00 | 94 | 1011.9 |
| 20260510045509 | 11 | 156 | 0.0 | 0.0 | 0.00 | 0.71 | 0.00 | 94 | 1011.8 |
| 20260510045005 | 11 | 156 | 0.0 | 0.0 | 0.00 | 0.71 | 0.00 | 94 | 1011.9 |
| 20260510044520 | 11 | 156 | 0.0 | 0.0 | 0.00 | 0.71 | 0.00 | 94 | 1011.9 |
| 20260510044006 | 11 | 156 | 0.0 | 0.0 | 0.00 | 0.71 | 0.00 | 94 | 1011.8 |
| 20260510043510 | 11 | 156 | 0.0 | 0.0 | 0.00 | 0.71 | 0.00 | 94 | 1011.9 |
| 20260510043020 | 11 | 156 | 0.0 | 0.0 | 0.00 | 0.71 | 0.00 | 94 | 1011.9 |
| 20260510042508 | 11 | 156 | 0.0 | 0.0 | 0.00 | 0.71 | 0.00 | 94 | 1011.8 |
| 20260510042012 | 11 | 156 | 0.0 | 0.0 | 0.00 | 0.71 | 0.00 | 94 | 1011.9 |
| 20260510041515 | 11 | 156 | 0.0 | 0.0 | 0.00 | 0.71 | 0.00 | 94 | 1011.8 |
| 20260510041006 | 11 | 156 | 0.0 | 0.0 | 0.00 | 0.71 | 0.00 | 94 | 1011.8 |
| 20260510040509 | 11 | 156 | 0.0 | 0.0 | 0.00 | 0.71 | 0.00 | 94 | 1011.8 |
| 20260510040016 | 11 | 156 | 0.0 | 0.0 | 0.00 | 0.71 | 0.00 | 94 | 1011.8 |
| 20260510035505 | 11 | 156 | 0.0 | 0.0 | 0.00 | 0.71 | 0.71 | 94 | 1011.8 |
| 20260510035002 | 11 | 156 | 0.0 | 0.0 | 0.00 | 0.71 | 0.71 | 94 | 1011.7 |
| 20260510034503 | 11 | 156 | 0.0 | 0.0 | 0.00 | 0.71 | 0.71 | 94 | 1011.7 |
| 20260510034003 | 11 | 156 | 0.0 | 0.0 | 0.00 | 0.71 | 0.71 | 94 | 1011.7 |
| 20260510033502 | 11 | 156 | 0.0 | 0.0 | 0.00 | 0.71 | 0.71 | 94 | 1011.7 |
| 20260510033004 | 11 | 156 | 0.0 | 0.0 | 0.00 | 0.71 | 0.71 | 94 | 1011.7 |
| 20260510032502 | 11 | 156 | 0.0 | 0.0 | 0.00 | 0.71 | 0.71 | 94 | 1011.5 |
| 20260510032006 | 11 | 156 | 0.0 | 0.0 | 0.00 | 0.71 | 0.71 | 94 | 1011.4 |
| 20260510031509 | 10 | 156 | 0.0 | 0.0 | 0.00 | 0.71 | 0.71 | 94 | 1011.5 |
| 20260510031003 | 10 | 156 | 0.0 | 0.0 | 0.00 | 0.71 | 0.71 | 94 | 1011.5 |
| 20260510030509 | 10 | 156 | 0.0 | 0.0 | 0.00 | 0.71 | 0.71 | 94 | 1011.6 |
| 20260510030009 | 10 | 156 | 0.0 | 1.6 | 0.03 | 0.71 | 0.71 | 94 | 1011.5 |
| 20260510025502 | 10 | 156 | 0.0 | 1.6 | 0.03 | 0.71 | 0.71 | 94 | 1011.6 |
| 20260510025006 | 10 | 156 | 0.0 | 0.0 | 0.03 | 0.71 | 0.71 | 93 | 1011.6 |
| 20260510024518 | 10 | 156 | 0.0 | 0.0 | 0.03 | 0.71 | 0.71 | 93 | 1011.7 |
| 20260510024006 | 10 | 156 | 0.0 | 0.0 | 0.03 | 0.71 | 0.71 | 93 | 1011.7 |
| 20260510023505 | 10 | 156 | 0.0 | 0.0 | 0.03 | 0.71 | 0.71 | 93 | 1011.7 |
| 20260510023003 | 10 | 156 | 0.0 | 0.0 | 0.03 | 0.71 | 0.71 | 93 | 1011.8 |
| 20260510022503 | 10 | 156 | 0.0 | 0.0 | 0.03 | 0.71 | 0.71 | 93 | 1011.8 |
| 20260510022002 | 10 | 156 | 0.0 | 0.0 | 0.03 | 0.71 | 0.71 | 93 | 1011.7 |
| 20260510021511 | 10 | 156 | 0.0 | 1.6 | 0.03 | 0.71 | 0.71 | 93 | 1011.8 |
| 20260510021005 | 10 | 156 | 0.0 | 1.6 | 0.03 | 0.71 | 0.71 | 93 | 1011.7 |
| 20260510020504 | 10 | 156 | 0.0 | 0.0 | 0.03 | 0.71 | 0.71 | 93 | 1011.7 |
| 20260510020008 | 10 | 156 | 0.0 | 0.0 | 0.00 | 0.69 | 0.69 | 93 | 1011.6 |
| 20260510015507 | 10 | 156 | 0.0 | 0.0 | 0.00 | 0.69 | 0.69 | 93 | 1011.7 |
| 20260510015010 | 10 | 156 | 0.0 | 0.0 | 0.00 | 0.69 | 0.69 | 92 | 1011.7 |
| 20260510014507 | 10 | 156 | 0.0 | 0.0 | 0.00 | 0.69 | 0.69 | 93 | 1011.6 |
| 20260510014004 | 10 | 156 | 0.0 | 0.0 | 0.00 | 0.69 | 0.69 | 93 | 1011.6 |
| 20260510013507 | 10 | 156 | 0.0 | 0.0 | 0.00 | 0.69 | 0.69 | 93 | 1011.7 |
| 20260510013004 | 10 | 156 | 0.0 | 0.0 | 0.00 | 0.69 | 0.69 | 93 | 1011.7 |
| 20260510012503 | 10 | 156 | 0.0 | 0.0 | 0.00 | 0.69 | 0.69 | 92 | 1011.6 |
| 20260510012010 | 10 | 156 | 0.0 | 0.0 | 0.00 | 0.69 | 0.69 | 93 | 1011.6 |
| 20260510011505 | 10 | 156 | 0.0 | 0.0 | 0.00 | 0.69 | 0.69 | 92 | 1011.5 |
| 20260510011004 | 11 | 156 | 0.0 | 0.0 | 0.00 | 0.69 | 0.69 | 92 | 1011.3 |
| 20260510010504 | 11 | 156 | 0.0 | 0.0 | 0.00 | 0.69 | 0.69 | 92 | 1011.1 |
| 20260510010007 | 11 | 156 | 0.0 | 0.0 | 0.00 | 0.69 | 0.69 | 92 | 1011.0 |
| 20260510005506 | 11 | 156 | 0.0 | 0.0 | 0.00 | 0.69 | 0.69 | 92 | 1011.1 |
| 20260510005004 | 11 | 156 | 0.0 | 0.0 | 0.00 | 0.69 | 0.69 | 92 | 1011.1 |
| 20260510004512 | 11 | 156 | 0.0 | 0.0 | 0.00 | 0.69 | 0.69 | 92 | 1011.0 |
| 20260510004009 | 11 | 156 | 0.0 | 0.0 | 0.00 | 0.69 | 0.69 | 92 | 1010.9 |
| 20260510003504 | 11 | 156 | 0.0 | 0.0 | 0.00 | 0.69 | 0.69 | 91 | 1010.9 |
| 20260510003012 | 11 | 156 | 0.0 | 0.0 | 0.00 | 0.69 | 0.69 | 92 | 1011.0 |
| 20260510002508 | 11 | 156 | 0.0 | 0.0 | 0.00 | 0.69 | 0.69 | 92 | 1011.0 |
| 20260510002007 | 11 | 156 | 0.0 | 0.0 | 0.00 | 0.69 | 0.69 | 92 | 1011.1 |
| 20260510001510 | 11 | 156 | 0.0 | 0.0 | 0.00 | 0.69 | 0.69 | 92 | 1011.1 |
| 20260510001007 | 11 | 156 | 0.0 | 0.0 | 0.00 | 0.69 | 0.69 | 91 | 1011.0 |
| 20260510000507 | 11 | 156 | 0.0 | 0.0 | 0.00 | 0.69 | 0.69 | 91 | 1011.0 |
| 20260510000010 | 12 | 156 | 0.0 | 0.0 | 0.00 | 0.69 | 0.69 | 91 | 1010.9 |
| 20260509235503 | 12 | 156 | 0.0 | 0.0 | 0.00 | 0.69 | 0.69 | 91 | 1010.8 |
| 20260509235006 | 12 | 156 | 0.0 | 0.0 | 0.00 | 0.69 | 0.69 | 91 | 1010.8 |
| 20260509234529 | 12 | 156 | 0.0 | 0.0 | 0.00 | 0.69 | 0.69 | 91 | 1010.8 |
| 20260509234003 | 12 | 156 | 0.0 | 0.0 | 0.00 | 0.69 | 0.69 | 91 | 1010.7 |
| 20260509233506 | 12 | 156 | 0.0 | 0.0 | 0.00 | 0.69 | 0.69 | 92 | 1010.7 |
| 20260509233020 | 12 | 156 | 0.0 | 1.6 | 0.00 | 0.69 | 0.69 | 92 | 1010.8 |
| 20260509232503 | 12 | 156 | 0.0 | 1.6 | 0.00 | 0.69 | 0.69 | 92 | 1010.7 |
| 20260509232007 | 12 | 156 | 0.0 | 4.8 | 0.00 | 0.69 | 0.69 | 92 | 1010.8 |
| 20260509231519 | 12 | 156 | 0.0 | 8.0 | 0.00 | 0.69 | 0.69 | 92 | 1010.6 |
| 20260509231008 | 12 | 156 | 0.0 | 8.0 | 0.00 | 0.69 | 0.69 | 92 | 1010.4 |
| 20260509230504 | 12 | 161 | 1.6 | 8.0 | 0.00 | 0.69 | 0.69 | 92 | 1010.5 |
| 20260509230018 | 12 | 145 | 1.6 | 8.0 | 0.00 | 0.69 | 0.69 | 92 | 1010.7 |
| 20260509225511 | 12 | 153 | 0.0 | 8.0 | 0.00 | 0.69 | 0.69 | 92 | 1011.1 |
| 20260509225019 | 12 | 153 | 1.6 | 8.0 | 0.00 | 0.69 | 0.69 | 92 | 1011.2 |
| 20260509224513 | 12 | 153 | 0.0 | 3.2 | 0.00 | 0.69 | 0.69 | 92 | 1011.2 |
| 20260509224003 | 12 | 153 | 0.0 | 4.8 | 0.03 | 0.69 | 0.69 | 92 | 1011.2 |
| 20260509223503 | 12 | 153 | 0.0 | 8.0 | 0.08 | 0.69 | 0.69 | 92 | 1011.2 |
| 20260509223009 | 12 | 153 | 0.0 | 8.0 | 0.13 | 0.69 | 0.69 | 92 | 1011.1 |
| 20260509222506 | 12 | 150 | 0.0 | 8.0 | 0.15 | 0.69 | 0.69 | 92 | 1011.1 |
| 20260509222006 | 12 | 150 | 0.0 | 8.0 | 0.20 | 0.69 | 0.69 | 92 | 1011.0 |
| 20260509221521 | 12 | 154 | 0.0 | 9.7 | 0.25 | 0.69 | 0.69 | 92 | 1011.0 |
| 20260509221007 | 12 | 148 | 1.6 | 9.7 | 0.30 | 0.69 | 0.69 | 92 | 1011.1 |
| 20260509220509 | 12 | 155 | 1.6 | 6.4 | 0.33 | 0.69 | 0.69 | 92 | 1011.0 |
| 20260509220023 | 12 | 146 | 0.0 | 6.4 | 0.36 | 0.69 | 0.69 | 91 | 1011.2 |
| 20260509215503 | 12 | 343 | 0.0 | 4.8 | 0.38 | 0.69 | 0.69 | 91 | 1011.5 |
| 20260509215008 | 12 | 329 | 0.0 | 4.8 | 0.48 | 0.69 | 0.69 | 91 | 1011.5 |
| 20260509214522 | 12 | 329 | 0.0 | 1.6 | 0.48 | 0.69 | 0.69 | 91 | 1011.3 |
| 20260509214012 | 12 | 329 | 0.0 | 0.0 | 0.48 | 0.66 | 0.66 | 91 | 1011.3 |
| 20260509213504 | 12 | 329 | 0.0 | 1.6 | 0.43 | 0.61 | 0.61 | 91 | 1011.5 |
| 20260509213019 | 12 | 329 | 0.0 | 1.6 | 0.38 | 0.56 | 0.56 | 91 | 1011.5 |
| 20260509212507 | 12 | 329 | 0.0 | 0.0 | 0.36 | 0.53 | 0.53 | 91 | 1011.4 |
| 20260509212006 | 12 | 329 | 0.0 | 1.6 | 0.33 | 0.48 | 0.48 | 90 | 1011.4 |
| 20260509211514 | 12 | 329 | 0.0 | 1.6 | 0.28 | 0.43 | 0.43 | 90 | 1011.4 |
| 20260509210506 | 12 | 329 | 0.0 | 1.6 | 0.23 | 0.36 | 0.36 | 90 | 1011.4 |
| 20260509210014 | 12 | 329 | 0.0 | 1.6 | 0.20 | 0.33 | 0.33 | 89 | 1011.1 |
| 20260509205507 | 12 | 329 | 0.0 | 0.0 | 0.18 | 0.30 | 0.30 | 89 | 1011.4 |
| 20260509205009 | 12 | 329 | 0.0 | 0.0 | 0.10 | 0.20 | 0.20 | 89 | 1011.4 |
| 20260509204525 | 12 | 329 | 0.0 | 0.0 | 0.10 | 0.20 | 0.20 | 89 | 1011.4 |
| 20260509204006 | 12 | 329 | 0.0 | 0.0 | 0.08 | 0.18 | 0.18 | 88 | 1011.5 |
| 20260509203513 | 13 | 329 | 0.0 | 0.0 | 0.08 | 0.18 | 0.18 | 88 | 1011.6 |
| 20260509203027 | 12 | 329 | 0.0 | 0.0 | 0.08 | 0.18 | 0.18 | 88 | 1011.4 |
| 20260509202503 | 12 | 329 | 0.0 | 3.2 | 0.08 | 0.18 | 0.18 | 86 | 1011.5 |
| 20260509202016 | 12 | 329 | 0.0 | 6.4 | 0.05 | 0.15 | 0.15 | 86 | 1011.4 |
| 20260509201528 | 13 | 329 | 0.0 | 8.0 | 0.05 | 0.15 | 0.15 | 86 | 1011.5 |
| 20260509201008 | 13 | 344 | 0.0 | 9.7 | 0.05 | 0.15 | 0.15 | 85 | 1011.8 |
| 20260509200507 | 13 | 345 | 1.6 | 9.7 | 0.03 | 0.13 | 0.13 | 84 | 1011.8 |
| 20260509200018 | 13 | 329 | 1.6 | 8.0 | 0.03 | 0.13 | 0.13 | 84 | 1011.5 |
| 20260509195511 | 13 | 325 | 0.0 | 8.0 | 0.03 | 0.13 | 0.13 | 83 | 1011.5 |
| 20260509195012 | 13 | 321 | 3.2 | 8.0 | 0.00 | 0.10 | 0.10 | 82 | 1011.8 |
| 20260509194518 | 13 | 309 | 0.0 | 16.1 | 0.00 | 0.10 | 0.10 | 83 | 1011.6 |
| 20260509194009 | 13 | 309 | 1.6 | 16.1 | 0.00 | 0.10 | 0.10 | 82 | 1011.7 |
| 20260509193513 | 13 | 315 | 3.2 | 16.1 | 0.00 | 0.10 | 0.10 | 81 | 1011.6 |
| 20260509193021 | 14 | 332 | 1.6 | 12.9 | 0.00 | 0.10 | 0.10 | 79 | 1011.5 |
| 20260509192507 | 14 | 327 | 1.6 | 12.9 | 0.03 | 0.10 | 0.10 | 82 | 1011.6 |
| 20260509192013 | 14 | 313 | 1.6 | 12.9 | 0.03 | 0.10 | 0.10 | 83 | 1011.4 |
| 20260509191528 | 13 | 336 | 0.0 | 4.8 | 0.03 | 0.10 | 0.10 | 85 | 1011.4 |
| 20260509191011 | 13 | 336 | 0.0 | 4.8 | 0.03 | 0.10 | 0.10 | 84 | 1011.4 |